Temperature
14 15 15 16 19 21 22 22 22 21 21 20 20 21 23 23 23 22 17 17 17 17 16 17 17 17 17 17 17 17 17 17 17 17 17 17 17 17 17 17 16 16 16 16 16 16 16 16 16
14 14 15 18 20 22 22 22 21 21 20 19 19 20 21 21 19 17 16 17 16 16 16 16 17 17 16 16 16 17 17 17 17 17 17 17 17 16 16 16 16 16 16 16 16 16 16 16 16
14 14 16 19 20 22 22 21 21 20 19 19 19 19 20 19 17 16 16 17 16 16 16 16 16 16 16 16 16 16 16 16 16 16 16 16 16 16 16 16 16 16 16 16 16 16 16 16 16
14 15 17 19 20 21 21 21 20 20 19 18 19 20 18 16 16 16 16 16 16 16 16 16 16 16 16 16 16 16 16 16 16 16 16 16 16 16 16 16 16 16 16 16 16 16 16 15 15
14 17 18 19 20 20 20 19 18 20 20 19 19 20 18 15 16 16 16 16 16 16 15 16 16 16 16 16 16 16 16 16 16 16 16 16 16 16 16 16 16 16 16 16 16 15 15 15 15
15 17 19 20 20 19 19 18 18 20 20 18 19 20 18 15 15 16 16 15 15 15 15 15 16 15 15 15 16 16 16 16 16 16 16 16 16 15 15 15 15 15 15 15 15 15 15 15 15
16 18 19 20 19 19 19 18 19 20 20 19 18 20 18 15 15 15 15 15 15 15 15 15 15 15 15 15 15 15 15 15 15 15 15 15 15 15 15 15 15 15 15 15 15 15 15 15 15
15 17 18 18 19 19 18 17 17 18 19 17 17 19 18 15 15 15 15 15 15 15 15 15 15 15 15 15 15 15 15 15 15 15 15 15 15 15 15 15 15 15 15 15 15 15 14 14 14
14 16 18 18 18 18 17 17 16 15 16 16 15 16 15 15 15 15 15 15 15 15 15 15 15 15 15 15 15 15 15 15 15 15 14 14 14 14 14 14 14 14 14 14 14 14 14 14 14
14 16 17 17 17 17 16 16 16 16 17 16 15 14 14 15 14 14 14 14 14 14 14 14 14 14 14 14 14 14 14 14 14 14 14 14 14 14 14 14 14 14 14 14 14 14 14 14 13
15 16 16 15 15 15 16 16 15 16 18 17 17 15 14 14 14 14 14 14 14 14 14 14 14 14 14 14 14 14 14 14 14 14 14 14 14 14 14 14 14 14 14 13 14 13 13 13 13
14 14 14 14 13 14 15 15 15 15 17 16 15 14 14 14 14 14 14 14 14 14 14 14 14 14 14 14 14 13 13 13 13 13 13 13 13 13 13 13 13 13 13 13 13 13 13 12 13
14 14 13 13 12 13 13 14 15 15 14 14 14 14 14 14 14 13 13 13 13 13 14 14 14 14 13 13 13 13 13 13 13 13 13 13 13 13 13 13 13 13 13 13 13 12 12 12 12
13 13 13 13 13 13 13 14 14 15 14 14 13 13 13 13 13 13 13 13 13 13 13 13 13 13 13 13 13 13 13 13 13 13 13 13 12 12 12 12 12 12 12 12 12 12 12 12 12
12 13 13 13 13 13 13 14 15 14 14 13 13 13 13 13 13 13 13 13 13 13 13 13 13 13 13 13 13 12 12 12 12 12 12 12 12 12 12 12 12 12 12 12 12 11 11 11 11
12 13 14 14 13 12 13 15 16 14 13 14 14 13 13 13 12 12 12 12 12 12 12 12 12 12 12 12 12 12 12 12 12 12 12 12 12 12 11 11 11 11 11 11 11 11 11 11 11
12 13 14 14 13 13 13 15 15 13 13 14 14 13 13 12 12 12 12 12 12 12 12 12 12 12 12 12 12 12 12 11 11 11 11 11 11 11 11 11 11 11 11 11 11 11 10 10 10
13 14 14 14 13 12 13 14 15 13 13 13 14 13 13 12 12 12 12 12 12 12 12 12 12 12 12 11 11 11 11 11 11 11 11 11 11 11 11 11 11 11 10 10 10 10 10 10 10
13 13 13 13 12 12 13 14 15 14 13 13 13 13 13 13 12 11 11 11 11 11 11 11 11 11 11 11 11 11 11 11 11 10 10 10 10 10 10 10 10 10 10 10 10 10 9 9 9
11 11 12 12 11 12 12 13 14 15 14 13 13 13 13 12 12 11 11 11 11 11 11 11 11 11 11 11 11 11 11 10 10 10 10 10 10 10 10 10 10 10 10 9 9 9 9 9 8
10 11 12 12 11 11 11 13 15 14 13 12 12 12 12 12 12 11 11 11 11 11 11 11 11 11 11 11 10 10 10 10 10 10 10 10 10 10 9 9 9 9 9 9 9 9 8 8 8
10 11 11 11 11 11 11 13 15 15 13 13 12 12 12 11 11 10 10 10 10 11 11 11 10 10 10 10 10 10 10 9 9 9 9 9 9 9 9 9 9 9 9 8 8 8 8 8 7
10 10 10 10 10 10 11 11 14 14 13 14 13 12 11 11 10 10 10 10 10 10 10 10 10 10 10 10 10 9 9 9 9 9 9 9 9 9 9 9 8 8 8 8 8 8 7 7 7
9 9 9 9 9 9 11 11 14 15 14 14 13 12 11 10 10 9 9 9 9 10 10 10 10 10 10 10 9 9 9 9 9 8 8 8 8 8 8 8 8 8 8 8 7 7 7 7 6
8 9 9 9 9 11 11 11 13 14 13 13 12 11 10 9 9 9 9 9 9 9 9 9 9 9 9 9 9 9 9 8 8 8 8 8 8 8 8 8 8 7 7 7 7 6 6 6 6
8 9 10 10 11 12 10 11 14 12 11 10 10 10 9 9 9 8 8 8 8 9 9 9 9 9 9 9 9 8 8 8 8 8 8 8 8 7 7 7 7 7 7 6 6 6 6 6 6
8 9 10 9 9 10 12 12 12 11 11 10 10 9 9 8 8 8 8 8 8 8 8 8 8 8 9 8 8 8 8 8 7 7 7 7 7 7 7 7 7 6 6 6 6 6 6 5 5
8 8 8 8 9 11 12 12 13 12 11 11 10 10 9 8 8 8 8 7 8 8 8 8 8 8 8 8 8 8 7 7 7 7 7 7 7 6 6 6 6 6 6 6 6 5 5 5 5
7 7 8 9 9 10 12 13 12 11 10 10 10 9 8 7 7 7 7 7 7 7 7 7 7 7 7 7 7 7 7 7 6 6 6 6 6 6 6 6 6 5 5 5 5 5 5 4 4
7 7 7 8 8 8 11 12 10 10 10 9 9 8 7 7 7 7 7 7 7 7 7 7 7 7 7 6 6 6 6 6 6 6 6 6 6 5 5 5 5 5 5 5 4 4 4 4 4
Wind_Speed
1 2 3 3 5 5 8 6 4 4 3 2 2 3 3 2 1 3 5 5 5 6 7 9 7 8 8 8 8 8 9 8 8 8 8 7 7 7 8 8 7 7 7 7 7 6 6 6 7
1 2 4 4 6 9 7 7 8 4 3 2 2 3 3 2 3 5 5 4 5 7 7 8 8 8 8 8 8 8 8 8 7 7 7 7 7 7 7 7 7 7 7 7 7 6 6 6 6
3 3 4 5 7 9 5 5 5 4 3 3 3 2 1 3 4 4 4 5 6 7 7 8 8 8 8 8 8 8 8 7 7 6 6 6 6 6 6 6 6 6 7 7 6 6 6 6 6
4 4 4 7 10 7 4 4 4 5 4 3 3 4 3 3 2 3 5 6 7 7 7 9 7 8 8 8 8 7 7 7 6 5 5 5 5 5 5 6 6 6 6 6 5 5 5 5 5
3 4 6 8 10 6 5 4 4 5 5 4 4 4 4 4 3 4 6 6 7 7 6 8 7 8 8 7 7 7 6 6 5 5 5 4 5 5 6 6 6 6 6 5 5 5 4 5 4
5 5 8 12 11 7 6 6 6 6 5 4 4 4 4 5 5 5 6 6 6 7 6 7 7 7 7 7 7 7 6 6 5 4 4 4 4 5 5 5 6 6 5 5 5 4 4 4 5
6 6 8 9 8 8 6 5 8 7 7 5 3 5 5 7 5 5 6 6 6 6 6 6 6 6 6 6 6 6 6 5 5 4 4 4 4 4 4 5 5 5 5 5 4 4 4 4 5
4 5 7 8 9 7 5 4 3 6 5 2 3 5 5 6 5 5 6 6 6 5 5 5 5 4 5 5 5 5 5 5 4 4 4 3 3 4 4 5 5 5 4 4 4 4 3 4 4
4 7 10 9 8 6 5 5 3 1 3 3 3 1 2 7 7 7 6 5 5 4 4 4 4 4 3 4 4 4 4 4 4 3 3 3 3 3 4 3 4 4 4 4 3 4 4 4 5
7 9 10 5 5 4 5 5 4 5 6 6 5 3 5 7 7 8 8 7 6 5 4 4 4 3 3 3 3 3 3 3 2 2 3 3 2 2 2 4 4 4 4 5 4 4 5 5 4
8 9 7 6 4 4 5 4 4 6 8 8 8 8 7 8 8 8 7 7 6 5 4 3 3 3 3 2 2 2 2 2 2 2 3 3 2 2 2 2 3 4 4 4 4 5 4 4 3
7 8 7 5 4 5 6 5 6 10 7 3 4 6 8 9 9 9 8 7 6 5 5 4 3 3 3 2 2 2 2 1 1 1 2 2 1 2 2 1 2 3 3 3 3 3 4 5 5
12 7 7 7 6 6 7 10 9 11 9 7 6 8 9 10 9 8 7 7 6 6 5 5 4 4 3 3 2 2 2 1 1 1 2 2 2 2 2 2 2 3 3 3 3 4 4 4 5
7 9 8 8 8 7 9 12 11 13 9 9 10 11 11 11 11 9 8 8 7 7 6 5 5 5 4 3 3 2 2 2 2 1 2 3 2 2 3 3 3 3 3 3 3 4 4 4 4
4 7 9 10 10 7 7 13 15 13 11 11 12 12 12 11 11 11 10 9 8 7 6 6 5 5 5 4 4 3 2 2 2 2 3 3 3 3 3 3 3 3 3 4 3 4 4 4 4
4 7 9 7 8 7 9 15 9 7 10 12 12 12 12 12 12 11 10 9 8 7 7 6 5 5 5 4 4 3 3 3 2 2 3 4 4 4 4 3 4 3 3 3 3 3 4 4 4
8 9 11 7 7 7 11 12 5 5 9 11 11 11 11 11 12 11 10 10 9 8 7 6 6 6 5 4 4 3 3 3 2 2 3 3 4 5 4 4 4 4 3 3 3 3 4 4 4
9 10 9 9 5 8 12 15 11 8 10 12 12 12 12 12 12 10 10 9 8 8 7 7 6 6 5 4 3 2 2 2 2 2 3 4 4 5 4 4 4 4 4 3 3 4 4 4 4
7 9 10 8 4 8 14 18 16 13 13 14 14 14 14 13 12 10 9 9 8 8 8 7 7 6 5 4 4 3 3 3 3 2 3 4 4 4 4 4 4 4 4 4 4 4 5 4 4
10 11 11 8 5 7 13 19 18 16 16 15 15 15 14 13 12 10 10 10 10 9 8 8 7 6 6 4 4 3 3 2 2 2 3 4 4 4 4 5 4 4 4 5 5 4 4 4 4
14 14 13 9 5 7 10 14 13 11 11 12 13 14 14 14 13 12 11 11 10 9 8 7 7 6 6 5 3 3 2 2 2 3 3 3 4 4 5 5 5 5 5 5 5 5 6 5 5
13 11 11 9 8 6 4 8 8 8 9 10 10 10 11 12 12 11 11 11 10 9 7 7 6 6 5 5 5 5 4 4 4 3 3 3 4 4 4 5 5 5 5 6 6 6 6 6 5
7 4 7 8 9 9 9 8 9 6 9 9 9 9 9 9 10 10 10 10 9 7 6 6 6 6 5 5 6 6 5 4 3 3 4 3 3 4 4 5 5 5 5 6 6 6 6 6 7
6 4 3 5 6 10 12 12 9 7 8 6 6 7 7 7 8 8 8 8 7 6 6 6 6 5 5 6 6 6 5 5 4 4 4 3 2 3 4 5 5 5 5 6 6 7 7 7 8
9 7 5 6 7 9 7 10 10 5 4 5 4 4 4 5 6 7 7 7 6 6 6 6 6 5 5 5 5 5 5 5 5 4 4 3 3 3 4 4 5 5 5 6 6 7 7 8 8
13 11 8 7 7 5 6 10 6 2 2 3 4 3 3 4 5 6 6 6 6 6 6 6 6 5 5 5 4 4 4 3 3 4 4 4 4 4 5 5 5 6 6 6 6 6 7 8 9
9 11 7 3 3 5 7 6 6 4 4 4 3 3 2 3 4 5 5 5 5 5 6 6 6 5 5 5 4 4 4 3 3 3 3 3 4 3 5 5 6 6 6 6 6 6 7 7 8
5 6 5 6 6 8 8 8 5 5 4 4 3 2 2 2 3 4 3 4 4 4 4 5 5 5 4 4 3 3 3 3 3 3 3 4 4 4 5 5 6 6 6 6 7 7 7 9 9
7 7 6 5 5 6 7 4 1 3 2 2 2 1 1 1 2 2 2 3 3 3 4 4 4 4 3 3 3 3 2 2 2 3 3 4 4 4 5 5 6 6 6 7 7 7 8 9 9
7 7 7 6 6 6 6 3 3 1 1 1 1 1 1 0 0 1 1 1 2 3 3 4 4 3 3 3 2 2 2 2 2 3 3 4 4 4 5 5 6 6 6 7 7 8 9 9 10
Wind_Direction
283 228 214 211 211 221 228 209 197 172 176 167 171 192 186 173 164 101 94 107 110 129 133 136 127 129 128 127 125 122 120 119 121 126 128 128 128 126 129 130 132 131 131 133 132 132 132 131 129
227 198 203 214 225 220 217 205 200 186 136 132 158 183 171 139 71 96 116 109 121 128 128 126 119 125 125 124 124 127 124 123 122 126 130 131 130 130 130 132 133 129 125 124 124 125 127 133 134
183 218 210 210 224 228 205 177 186 167 163 183 164 168 159 120 110 113 101 128 133 129 128 114 110 119 123 123 122 120 122 127 126 126 131 136 135 132 131 127 127 130 128 126 125 126 128 127 133
189 187 211 228 225 228 222 149 144 166 170 184 179 149 128 79 88 96 114 139 137 132 129 118 113 114 115 120 124 122 120 122 124 125 128 137 141 138 136 132 127 125 128 130 131 132 136 138 134
204 202 209 224 230 222 221 214 199 196 177 174 188 163 139 105 90 108 129 139 137 131 128 124 114 116 115 116 122 123 123 125 126 122 120 129 139 139 137 135 133 129 124 125 132 137 141 146 146
190 209 220 226 222 218 218 214 212 215 197 182 189 175 141 123 119 118 130 136 132 130 128 126 114 110 112 114 116 120 121 122 123 127 126 122 126 139 138 137 138 137 133 132 135 143 150 153 152
207 210 231 232 224 219 210 200 214 214 207 194 188 179 152 145 121 128 131 128 126 128 132 132 141 133 117 112 116 117 124 122 119 121 129 129 126 132 141 141 143 144 142 140 141 144 154 159 160
223 219 228 225 222 219 185 187 210 222 211 172 204 202 171 154 139 137 130 126 124 128 134 137 140 145 149 138 121 121 122 126 125 122 124 128 139 144 148 157 152 152 158 159 160 159 157 167 167
210 226 228 220 217 207 179 192 181 209 193 188 205 241 103 135 148 150 146 142 139 140 145 146 143 143 147 147 136 140 133 135 149 150 145 166 184 183 176 176 155 167 172 175 179 177 170 171 175
206 227 231 225 221 196 181 200 188 195 203 201 195 175 145 155 168 175 178 174 169 166 163 162 163 157 151 143 149 158 158 159 182 183 181 197 199 195 197 162 165 177 186 191 196 189 182 198 199
210 231 233 224 223 214 209 212 209 221 224 219 208 185 172 179 190 194 193 187 184 179 177 178 175 172 168 157 156 153 160 170 192 203 192 202 204 193 202 185 186 202 202 208 202 201 209 219 215
219 232 235 227 213 220 228 230 232 233 239 237 213 185 185 196 200 202 201 194 186 187 187 189 186 181 182 176 168 175 167 165 175 210 218 210 208 221 207 209 211 213 213 220 217 223 225 234 231
226 231 231 236 234 242 245 243 251 245 245 243 225 209 209 210 211 210 208 203 194 191 192 192 194 191 187 186 189 196 199 193 192 207 224 221 218 229 228 225 221 226 231 225 233 236 240 245 247
227 231 239 242 240 241 243 251 247 246 235 228 222 221 220 219 218 215 209 207 202 199 197 196 198 197 194 196 199 203 206 205 219 216 232 235 232 230 231 234 233 235 237 241 242 245 246 246 250
221 236 246 239 235 235 242 251 238 241 230 228 225 223 224 224 221 220 216 213 209 205 203 200 203 201 200 203 206 208 212 210 215 228 236 234 235 235 232 235 233 238 239 241 246 247 252 252 251
211 229 238 222 216 213 222 251 236 222 218 225 227 225 224 224 225 224 218 216 213 207 204 201 200 203 203 206 208 208 217 219 220 228 238 237 237 238 238 234 235 238 238 242 239 244 248 251 254
215 230 234 225 210 212 224 253 234 213 221 229 227 225 224 223 225 223 218 214 212 207 202 199 199 204 204 205 206 211 215 224 230 233 240 237 236 236 237 238 238 233 236 238 238 244 250 254 256
218 226 234 231 205 222 237 250 249 238 238 241 235 230 227 225 224 219 213 208 206 204 201 200 200 205 201 201 203 206 214 226 234 237 239 238 239 238 239 240 238 232 230 233 234 242 250 256 256
240 235 241 244 246 251 253 259 258 250 244 244 241 236 232 231 226 217 210 202 198 198 200 201 202 200 196 195 201 207 215 222 231 239 241 238 239 236 238 241 236 231 232 236 239 245 249 254 258
231 240 249 258 256 261 270 270 264 252 243 242 241 238 235 230 223 214 208 201 200 199 199 204 207 203 199 200 205 214 217 227 235 239 245 239 239 236 237 237 235 232 234 238 239 242 249 254 244
230 237 243 250 269 260 282 274 250 236 234 237 238 238 235 227 220 212 206 203 200 200 200 204 207 205 200 195 194 189 198 225 227 235 241 245 242 239 236 239 237 234 234 236 237 237 242 249 250
235 233 238 243 253 257 259 278 255 229 231 229 229 226 225 220 216 210 204 201 201 201 198 204 207 206 198 196 203 206 215 228 241 241 237 245 246 244 239 243 241 237 235 235 237 238 242 243 247
225 206 220 235 247 263 239 253 263 229 236 229 225 221 219 214 209 204 201 201 201 197 195 203 206 204 197 202 207 212 220 229 232 236 237 242 246 244 241 243 242 241 240 239 238 239 241 241 244
176 161 193 219 237 250 233 230 260 229 232 233 225 220 213 204 201 199 198 198 200 193 194 201 200 200 197 203 209 215 218 222 227 236 242 244 244 248 247 246 244 242 240 239 239 240 241 244 245
192 186 198 209 218 238 205 225 250 249 243 246 236 223 208 196 192 192 193 194 196 193 196 200 198 200 199 202 210 214 217 220 225 234 240 248 250 252 252 250 248 248 249 247 246 244 244 245 246
199 206 211 220 228 223 202 232 246 235 242 246 244 236 211 201 194 194 195 194 197 197 201 202 203 203 201 202 207 207 211 220 228 238 241 247 251 256 256 256 255 258 257 253 250 249 249 248 249
189 212 226 242 271 254 226 238 260 223 218 219 212 203 200 193 193 195 196 201 204 203 207 206 204 203 201 202 203 203 209 220 231 243 248 250 250 256 257 256 255 256 257 256 253 251 254 253 252
220 186 186 208 221 238 239 236 226 193 200 192 183 178 163 181 190 196 199 204 206 206 206 202 201 203 202 200 200 205 216 230 237 245 254 258 258 258 257 257 255 257 258 258 254 254 254 253 253
179 189 207 211 239 239 243 231 146 183 173 167 163 164 170 184 187 198 217 216 208 204 196 190 189 189 195 195 197 205 220 235 243 252 261 267 267 263 262 262 261 261 262 262 261 261 259 257 258
212 203 194 209 220 233 254 245 86 134 128 153 147 127 65 78 175 231 222 201 196 190 182 175 177 182 190 191 193 205 223 239 254 266 276 280 277 273 270 267 266 266 266 265 263 265 265 263 262
Height
1503 1504 1506 1509 1507 1502 1496 1493 1493 1496 1497 1499 1500 1499 1497 1498 1499 1506 1508 1506 1506 1508 1509 1510 1512 1513 1514 1516 1517 1518 1519 1520 1520 1521 1522 1522 1523 1523 1523 1524 1524 1525 1525 1525 1525 1526 1526 1525 1526
1503 1505 1508 1508 1501 1497 1494 1491 1493 1494 1498 1500 1501 1500 1500 1501 1504 1505 1505 1505 1507 1508 1510 1511 1512 1513 1514 1516 1517 1518 1519 1520 1520 1521 1521 1522 1522 1523 1523 1524 1524 1525 1525 1525 1525 1526 1526 1526 1526
1503 1505 1508 1503 1497 1491 1489 1491 1493 1497 1499 1500 1500 1501 1501 1502 1504 1505 1505 1506 1507 1509 1510 1511 1512 1513 1514 1516 1517 1518 1518 1519 1520 1521 1521 1522 1522 1523 1523 1524 1524 1524 1525 1525 1525 1525 1526 1526 1526
1504 1507 1506 1500 1494 1491 1490 1492 1496 1497 1499 1500 1500 1500 1502 1503 1504 1505 1505 1506 1508 1509 1510 1511 1512 1513 1514 1515 1516 1517 1518 1519 1519 1520 1520 1521 1522 1522 1523 1523 1524 1524 1524 1525 1525 1525 1526 1526 1526
1503 1504 1500 1496 1492 1492 1493 1495 1497 1496 1497 1499 1499 1499 1502 1503 1502 1504 1505 1506 1508 1509 1510 1511 1512 1513 1514 1515 1516 1517 1517 1518 1519 1519 1520 1520 1521 1521 1522 1523 1523 1523 1524 1524 1524 1525 1525 1525 1525
1503 1500 1495 1490 1489 1492 1493 1496 1496 1495 1496 1498 1499 1499 1501 1502 1503 1504 1505 1507 1508 1509 1510 1511 1511 1513 1514 1514 1515 1516 1517 1517 1518 1518 1519 1519 1520 1520 1521 1522 1522 1523 1523 1523 1523 1524 1524 1524 1525
1501 1497 1490 1487 1488 1490 1492 1495 1495 1494 1495 1497 1498 1498 1500 1502 1502 1503 1505 1506 1507 1508 1509 1510 1511 1512 1513 1514 1515 1515 1516 1516 1517 1517 1518 1518 1519 1519 1520 1520 1521 1521 1522 1522 1522 1522 1523 1523 1523
1499 1496 1491 1489 1488 1488 1492 1494 1494 1494 1494 1497 1498 1497 1499 1501 1501 1503 1504 1505 1506 1507 1508 1510 1510 1511 1512 1513 1513 1514 1515 1515 1516 1516 1516 1517 1517 1518 1519 1519 1519 1520 1520 1521 1521 1521 1521 1522 1522
1498 1496 1487 1486 1487 1487 1492 1493 1495 1495 1496 1496 1497 1498 1498 1498 1500 1502 1503 1504 1505 1506 1507 1508 1509 1510 1511 1511 1512 1513 1513 1513 1514 1514 1515 1515 1516 1516 1517 1517 1518 1518 1519 1519 1519 1519 1519 1520 1520
1496 1490 1484 1486 1487 1488 1491 1492 1493 1494 1494 1494 1496 1496 1496 1497 1499 1501 1502 1503 1504 1505 1506 1507 1508 1508 1509 1510 1510 1511 1511 1511 1512 1512 1513 1513 1514 1514 1515 1515 1516 1516 1517 1517 1517 1517 1517 1517 1518
1492 1487 1486 1489 1490 1491 1491 1492 1493 1492 1490 1491 1493 1494 1495 1496 1498 1500 1501 1502 1503 1503 1504 1505 1506 1507 1507 1508 1508 1509 1509 1509 1510 1510 1511 1511 1512 1512 1513 1513 1514 1514 1514 1515 1515 1515 1515 1516 1516
1490 1488 1489 1489 1491 1491 1491 1491 1491 1490 1489 1491 1492 1492 1493 1495 1496 1498 1499 1500 1501 1501 1502 1503 1504 1505 1505 1506 1506 1507 1507 1507 1508 1508 1508 1509 1509 1509 1510 1510 1511 1511 1512 1512 1512 1513 1513 1513 1513
1488 1487 1489 1490 1490 1491 1491 1490 1489 1487 1488 1489 1489 1490 1491 1493 1494 1495 1496 1497 1498 1499 1500 1501 1502 1502 1503 1503 1504 1504 1505 1505 1505 1505 1506 1506 1506 1507 1507 1508 1508 1508 1509 1509 1510 1510 1510 1510 1510
1486 1487 1488 1488 1488 1489 1488 1486 1487 1482 1485 1486 1486 1487 1488 1490 1491 1492 1493 1494 1495 1496 1497 1498 1499 1500 1500 1501 1501 1502 1502 1502 1503 1503 1503 1503 1504 1504 1504 1505 1505 1505 1506 1506 1506 1507 1507 1507 1507
1487 1486 1485 1484 1485 1486 1487 1481 1479 1479 1481 1482 1483 1484 1485 1486 1487 1488 1490 1491 1492 1493 1494 1495 1496 1497 1497 1498 1499 1499 1499 1499 1500 1500 1500 1500 1501 1501 1501 1501 1502 1502 1503 1503 1503 1504 1503 1504 1503
1485 1483 1479 1478 1482 1483 1486 1471 1471 1475 1477 1478 1479 1480 1481 1482 1483 1485 1486 1487 1489 1490 1491 1492 1493 1494 1494 1495 1495 1496 1496 1496 1496 1497 1497 1497 1497 1498 1498 1498 1498 1499 1499 1499 1499 1500 1500 1500 1500
1480 1476 1472 1475 1478 1479 1479 1469 1470 1473 1474 1474 1475 1476 1477 1478 1479 1480 1482 1483 1485 1486 1487 1488 1489 1490 1491 1492 1492 1492 1493 1493 1493 1493 1493 1493 1494 1494 1495 1495 1495 1495 1496 1496 1496 1496 1497 1497 1497
1471 1470 1470 1470 1474 1477 1474 1467 1467 1470 1471 1470 1471 1471 1473 1473 1475 1476 1477 1479 1481 1482 1483 1485 1486 1487 1488 1488 1488 1489 1489 1489 1490 1490 1490 1490 1490 1491 1491 1491 1492 1492 1492 1492 1492 1493 1493 1493 1493
1470 1470 1469 1470 1474 1475 1468 1464 1462 1464 1465 1465 1465 1466 1467 1469 1471 1472 1473 1475 1476 1478 1479 1481 1482 1483 1484 1484 1484 1485 1485 1485 1486 1486 1486 1486 1486 1487 1487 1488 1488 1488 1488 1488 1489 1489 1489 1489 1489
1473 1472 1470 1471 1474 1473 1466 1460 1456 1456 1457 1459 1459 1460 1461 1464 1465 1467 1468 1470 1472 1474 1476 1477 1478 1479 1480 1480 1481 1481 1481 1482 1482 1482 1482 1482 1483 1483 1483 1484 1484 1484 1484 1485 1485 1485 1485 1485 1486
1471 1470 1468 1469 1472 1471 1468 1453 1446 1448 1452 1453 1454 1455 1456 1458 1459 1461 1464 1466 1468 1470 1471 1473 1474 1475 1476 1477 1477 1477 1478 1478 1478 1478 1479 1479 1479 1479 1479 1479 1480 1480 1480 1480 1481 1481 1481 1481 1482
1466 1468 1469 1471 1471 1465 1467 1454 1439 1441 1446 1448 1449 1450 1451 1453 1455 1457 1459 1461 1463 1465 1467 1469 1470 1471 1472 1473 1473 1474 1474 1474 1474 1474 1475 1475 1475 1475 1475 1476 1476 1476 1476 1476 1476 1477 1477 1477 1477
1464 1468 1470 1471 1471 1469 1464 1463 1439 1439 1440 1440 1443 1445 1447 1449 1451 1453 1455 1457 1460 1461 1463 1465 1466 1467 1468 1469 1470 1470 1470 1471 1471 1471 1471 1471 1471 1471 1471 1472 1472 1471 1471 1471 1471 1472 1472 1472 1472
1467 1470 1471 1471 1470 1467 1453 1454 1435 1432 1433 1435 1439 1442 1444 1445 1447 1450 1452 1454 1456 1457 1459 1461 1462 1463 1464 1465 1466 1466 1466 1467 1467 1467 1467 1467 1467 1467 1467 1467 1467 1467 1467 1467 1466 1467 1467 1467 1467
1466 1466 1466 1466 1464 1450 1448 1448 1433 1430 1434 1436 1438 1440 1442 1443 1445 1446 1448 1450 1452 1454 1456 1457 1458 1459 1460 1461 1462 1462 1463 1463 1463 1463 1463 1463 1463 1463 1463 1463 1463 1462 1462 1462 1462 1461 1461 1462 1462
1458 1457 1455 1452 1444 1437 1450 1441 1428 1433 1436 1437 1438 1439 1440 1442 1443 1444 1445 1447 1449 1450 1452 1453 1454 1455 1456 1457 1458 1458 1459 1459 1459 1459 1459 1459 1459 1459 1459 1458 1458 1458 1458 1457 1457 1456 1456 1456 1456
1456 1454 1451 1453 1452 1443 1433 1432 1431 1432 1434 1435 1437 1438 1439 1440 1441 1442 1443 1445 1446 1447 1449 1450 1451 1452 1453 1453 1454 1455 1455 1456 1456 1456 1456 1456 1455 1455 1455 1454 1454 1453 1453 1452 1452 1451 1451 1450 1450
1453 1452 1455 1453 1447 1436 1426 1427 1422 1427 1430 1432 1434 1436 1438 1439 1440 1441 1442 1442 1443 1445 1446 1447 1448 1449 1450 1450 1451 1451 1452 1452 1452 1452 1452 1452 1452 1451 1451 1450 1450 1449 1448 1447 1447 1445 1445 1445 1444
1453 1455 1450 1447 1443 1434 1425 1421 1423 1426 1429 1432 1434 1436 1437 1438 1438 1439 1440 1440 1441 1442 1443 1444 1445 1446 1447 1448 1448 1448 1449 1449 1449 1449 1449 1448 1448 1447 1447 1446 1445 1444 1443 1442 1442 1441 1440 1439 1438
1448 1447 1449 1447 1445 1441 1429 1426 1428 1429 1431 1433 1434 1436 1437 1437 1438 1438 1438 1439 1439 1439 1440 1441 1442 1443 1444 1445 1445 1446 1446 1446 1446 1446 1445 1445 1444 1443 1442 1442 1440 1440 1439 1438 1437 1435 1435 1433 1432